WA2GUG Weather Reports


Display with metric or nautical units.
time (UTC)temp
F
wind
direction
speed
MPH
gust
MPH
rain 1hr
in
rain 24hr
in
rain mn
in
humidity
%
barometer
mb
20190121181952 15 315 6.0 10.0 0.00 0.00 0.00 72 1013.0
20190121180952 15 22 4.0 15.0 0.00 0.00 0.00 82 1013.0
20190121175952 15 320 6.0 12.0 0.00 0.00 0.00 71 1013.0
20190121174952 14 0 5.0 10.0 0.00 0.00 0.00 78 1012.0
20190121172952 11 348 5.0 15.0 0.00 0.00 0.00 73 1013.0
20190121172451 11 351 5.0 18.0 0.00 0.00 0.00 82 1013.0
20190121171952 10 301 6.0 18.0 0.00 0.00 0.00 76 1012.1
20190121171451 10 330 6.0 12.0 0.00 0.00 0.00 81 1013.0
20190121170952 9 322 5.0 12.0 0.00 0.00 0.00 81 1013.0
20190121165453 9 337 6.0 11.0 0.00 0.00 0.00 86 1163.0
20190121164951 9 303 5.0 11.0 0.00 0.00 0.00 77 1012.0
20190121164452 9 292 3.0 11.0 0.00 0.00 0.00 87 1013.0
20190121163951 8 337 5.0 11.0 0.00 0.00 0.00 89 1013.0
20190121163451 7 315 5.0 12.0 0.00 0.00 0.00 83 1013.0
20190121162952 6 6.0 17.0 0.00 0.00 0.00 84 1013.0
20190121161451 4 0 6.0 13.0 0.00 0.00 0.00 89 1276.0
20190121155952 3 90 5.0 19.0 0.00 0.00 0.00 92 1013.0
20190121155452 3 324 7.0 19.0 0.00 0.00 0.00 91 1296.0
20190121154452 3 303 5.0 11.0 0.00 0.00 0.00 95 1014.0
20190121153951 3 5.0 16.0 0.00 0.00 0.00 91 1014.0
20190121153451 3 307 6.0 16.0 0.00 0.00 0.00 90 1014.0
20190121152951 3 343 4.0 9.0 0.00 0.00 0.00 91 1014.0
20190121152451 2 309 5.0 9.0 0.00 0.00 0.00 92 1014.0
20190121151951 2 247 5.0 12.0 0.00 0.00 0.00 93 1013.0
20190121151451 1 315 5.0 12.0 0.00 0.00 0.00 94 1014.0
20190121150951 1 330 5.0 11.0 0.00 0.00 0.00 91 1013.0
20190121150451 0 320 4.0 17.0 0.00 0.00 0.00 93 1011.0
20190121145952 0 33 6.0 20.0 0.00 0.00 0.00 93 1013.0
20190121145452 0 300 7.0 20.0 0.00 0.00 0.00 94 1013.0
20190121144951 0 285 6.0 13.0 0.00 0.00 0.00 88 1013.0
20190121144452 0 330 4.0 12.0 0.00 0.00 0.00 92 1012.1
20190121143951 0 307 7.0 16.0 0.00 0.00 0.00 89 1013.0
20190121143453 0 326 7.0 16.0 0.00 0.00 0.00 91 1012.0
20190121143050 0 67 6.0 14.0 0.00 0.00 0.00 89 1013.0
20190121143047 0 309 3.0 99.0 0.00 0.00 0.00 91 1013.0
20190121143045 -1 341 45.0 99.0 0.00 0.00 0.00 90 1013.0
20190121143043 -2 33 3.0 11.0 0.00 0.00 0.00 91 1013.0
20190121140451 -2 337 4.0 10.0 0.00 0.00 0.00 88 1013.0
20190121135952 -3 320 5.0 12.0 0.00 0.00 0.00 93 1013.0
20190121135452 -3 322 6.0 12.0 0.00 0.00 0.00 92 1012.1
20190121134952 -2 337 6.0 10.0 0.00 0.00 0.00 94 1247.0
20190121134452 -2 281 5.0 12.0 0.00 0.00 0.00 91 1013.0
20190121133951 -2 45 5.0 13.0 0.00 0.00 0.00 91 1013.0
20190121133452 -2 292 6.0 13.0 0.00 0.00 0.00 92 1013.0
20190121132952 -2 306 5.0 11.0 0.00 0.00 0.00 84 1013.0
20190121132451 -1 292 5.0 99.0 0.00 0.00 0.00 90 1012.0
20190121131952 -3 320 399.0 99.0 0.00 0.00 0.00 89 1015.0
20190121131451 -3 315 7.0 17.0 0.00 0.00 0.00 90 1013.0
20190121130952 -3 309 6.0 15.0 0.00 0.00 0.00 88 1012.1
20190121130451 -4 337 7.0 19.0 0.00 0.00 0.00 87 1012.1
20190121125952 -4 354 8.0 19.0 0.00 0.00 0.00 89 1012.0
20190121125451 -4 337 7.0 15.0 0.00 0.00 0.00 89 1012.0
20190121124952 -4 277 7.0 13.0 0.00 0.00 0.00 90 1012.0
20190121124451 -4 315 6.0 13.0 0.00 0.00 0.00 85 1012.0
20190121123952 -4 326 6.0 13.0 0.00 0.00 0.00 87 1012.0
20190121123451 -4 45 6.0 11.0 0.00 0.00 0.00 88 1012.0
20190121122952 -4 303 4.0 16.0 0.00 0.00 0.00 92 1012.0
20190121122451 -4 330 6.0 16.0 0.00 0.00 0.00 86 1012.0
20190121121952 -4 303 5.0 12.0 0.00 0.00 0.00 89 1012.0
20190121121451 -4 303 5.0 11.0 0.00 0.00 0.00 93 1011.0
20190121120952 -4 326 5.0 13.0 0.00 0.00 0.00 86 1272.0
20190121120451 -4 6.0 13.0 0.00 0.00 0.00 84 1011.1
20190121115951 -4 292 5.0 10.0 0.00 0.00 0.00 85 1012.0
20190121115451 -4 315 5.0 10.0 0.00 0.00 0.00 89 1011.1
20190121114951 -4 300 3.0 8.0 0.00 0.00 0.00 90 1011.1
20190121113951 -4 337 4.0 11.0 0.00 0.00 0.00 88 1012.0
20190121113451 -4 4.0 12.0 0.00 0.00 0.00 85 1012.0
20190121112952 -4 326 5.0 12.0 0.00 0.00 0.00 91 1011.1
20190121112451 -4 45 5.0 11.0 0.00 0.00 0.00 92 1010.0
20190121111951 -4 4.0 9.0 0.00 0.00 0.00 89 1011.0
20190121111451 -4 5.0 11.0 0.00 0.00 0.00 90 1010.0
20190121110951 -4 345 5.0 11.0 0.00 0.00 0.00 89 1011.0
20190121110451 -4 326 5.0 11.0 0.00 0.00 0.00 90 1010.0
20190121105952 -4 337 5.0 11.0 0.00 0.00 0.00 95 1011.0
20190121105451 -4 292 4.0 14.0 0.00 0.00 0.00 90 1011.0
20190121104951 -4 337 5.0 99.0 0.00 0.00 0.00 90 1011.0
20190121104451 -4 337 20.0 99.0 0.00 0.00 0.00 92 1011.0
20190121103951 -3 337 5.0 11.0 0.00 0.00 0.00 89 1011.0
20190121103451 -3 11 6.0 10.0 0.00 0.00 0.00 89 1010.1
20190121102951 -4 330 4.0 9.0 0.00 0.00 0.00 92 1011.0
20190121102451 -4 337 4.0 12.0 0.00 0.00 0.00 88 1011.0
20190121101951 -3 337 4.0 13.0 0.00 0.00 0.00 87 1011.0
20190121101451 -3 112 4.0 13.0 0.00 0.00 0.00 87 1011.0
20190121100951 -3 45 5.0 12.0 0.00 0.00 0.00 84 1011.0
20190121100451 -3 309 6.0 12.0 0.00 0.00 0.00 82 1011.0
20190121095951 -3 326 7.0 12.0 0.00 0.00 0.00 86 1010.0
20190121095451 -3 292 5.0 12.0 0.00 0.00 0.00 89 1010.0
20190121094451 -3 11 6.0 15.0 0.00 0.00 0.00 90 1011.0
20190121093951 -3 326 4.0 13.0 0.00 0.00 0.00 91 1011.0
20190121093451 -3 307 6.0 13.0 0.00 0.00 0.00 90 1011.0
20190121092951 -3 45 4.0 9.0 0.00 0.00 0.00 90 1011.0
20190121092450 -3 342 5.0 11.0 0.00 0.00 0.00 91 1010.0
20190121091951 -3 315 4.0 11.0 0.00 0.00 0.00 93 1010.1
20190121091450 -3 330 4.0 10.0 0.00 0.00 0.00 91 1010.0
20190121090951 -3 90 5.0 10.0 0.00 0.00 0.00 90 1010.0
20190121090451 -3 315 4.0 10.0 0.00 0.00 0.00 92 1010.0
20190121085951 -3 311 4.0 9.0 0.00 0.00 0.00 90 1010.0
20190121085451 -3 13 3.0 14.0 0.00 0.00 0.00 91 1177.0
20190121084951 -3 303 5.0 14.0 0.00 0.00 0.00 93 1010.0
20190121084451 -3 315 4.0 10.0 0.00 0.00 0.00 91 1009.0
20190121083951 -3 341 5.0 10.0 0.00 0.00 0.00 88 1012.0
20190121083451 -3 309 5.0 10.0 0.00 0.00 0.00 91 1010.0
20190121082951 -3 300 3.0 15.0 0.00 0.00 0.00 92 1010.0
20190121082450 -3 337 6.0 15.0 0.00 0.00 0.00 91 1010.0
20190121081951 -3 315 5.0 11.0 0.00 0.00 0.00 90 1009.1
20190121081451 -2 323 5.0 11.0 0.00 0.00 0.00 92 1010.0
20190121080951 -2 331 6.0 13.0 0.00 0.00 0.00 88 1010.0
20190121080451 -2 292 6.0 13.0 0.00 0.00 0.00 88 1010.0
20190121075951 -2 335 5.0 13.0 0.00 0.00 0.00 87 1010.0
20190121075451 -2 311 5.0 13.0 0.00 0.00 0.00 87 1010.0
20190121074951 -2 303 5.0 12.0 0.00 0.00 0.00 89 1010.0
20190121074450 -2 334 4.0 11.0 0.00 0.00 0.00 90 1010.0
20190121073951 -2 324 4.0 11.0 0.00 0.00 0.00 88 1010.0
20190121073451 -2 348 4.0 11.0 0.00 0.00 0.00 90 1010.0
20190121072951 -1 36 5.0 11.0 0.00 0.00 0.00 88 1010.0
20190121072450 -1 311 5.0 11.0 0.00 0.00 0.00 89 1010.0
20190121071951 -1 303 4.0 8.0 0.00 0.00 0.00 86 1010.0
20190121071451 -1 5 4.0 10.0 0.00 0.00 0.00 86 1009.0
20190121070951 -1 225 6.0 13.0 0.00 0.00 0.00 83 1010.0
20190121070451 -1 292 6.0 18.0 0.00 0.00 0.00 88 1010.0
20190121065951 -1 337 8.0 18.0 0.00 0.00 0.00 91 1010.0
20190121065451 -1 352 5.0 10.0 0.00 0.00 0.00 91 1012.0
20190121064952 -1 337 5.0 13.0 0.00 0.00 0.00 84 1009.0
20190121064451 0 315 8.0 13.0 0.00 0.00 0.00 93 1213.0
20190121063951 0 337 6.0 13.0 0.00 0.00 0.00 80 1009.0
20190121063451 0 309 6.0 12.0 0.00 0.00 0.00 88 1008.1
20190121062951 0 337 4.0 13.0 0.00 0.00 0.00 84 1436.0
20190121062451 -1 320 5.0 13.0 0.00 0.00 0.00 88 1008.0
20190121061951 0 255 4.0 12.0 0.00 0.00 0.00 90 1009.0
20190121061450 0 315 4.0 11.0 0.00 0.00 0.00 89 1008.1
20190121060951 0 326 5.0 11.0 0.00 0.00 0.00 85 1009.0
20190121060451 0 307 4.0 14.0 0.00 0.00 0.00 87 1008.0
20190121055951 0 337 6.0 14.0 0.00 0.00 0.00 80 1009.0
20190121055451 0 67 4.0 12.0 0.00 0.00 0.00 91 1009.0
20190121054951 0 258 4.0 11.0 0.00 0.00 0.00 89 1009.0
20190121054450 0 326 4.0 11.0 0.00 0.00 0.00 88 1009.0
20190121053951 0 337 5.0 10.0 0.00 0.00 0.00 83 1009.0
20190121053450 0 348 4.0 8.0 0.00 0.00 0.00 93 1009.0
20190121052951 0 22 4.0 12.0 0.00 0.00 0.00 91 1009.0
20190121052451 0 22 5.0 13.0 0.00 0.00 0.00 96 1009.0
20190121051951 0 319 5.0 14.0 0.00 0.00 0.00 87 1009.0
20190121051451 0 315 5.0 14.0 0.00 0.00 0.00 92 1008.0
20190121050951 0 327 5.0 14.0 0.00 0.00 0.00 85 1009.0
20190121050451 0 315 5.0 12.0 0.00 0.00 0.00 86 1009.0
20190121045951 1 315 5.0 12.0 0.00 0.00 0.00 90 1009.0
20190121045450 1 5.0 11.0 0.00 0.00 0.00 92 1009.0
20190121044951 1 315 6.0 11.0 0.00 0.00 0.00 92 1009.0
20190121044450 1 337 5.0 10.0 0.00 0.00 0.00 89 1008.0
20190121043951 1 285 3.0 10.0 0.00 0.00 0.00 91 1008.0
20190121043450 1 67 4.0 10.0 0.00 0.00 0.00 90 1008.0
20190121042951 2 22 5.0 10.0 0.00 0.00 0.00 81 1008.0
20190121042450 2 337 5.0 14.0 0.00 0.00 0.00 93 1008.0
20190121041951 2 315 5.0 14.0 0.00 0.00 0.00 86 1008.0
20190121041450 2 78 5.0 12.0 0.00 0.00 0.00 93 1008.0
20190121040951 2 300 6.0 11.0 0.00 0.00 0.00 91 1008.0
20190121040450 2 135 4.0 99.0 0.00 0.00 0.00 90 1007.0
20190121035450 2 315 5.0 9.0 0.00 0.00 0.00 88 1255.0
20190121034951 2 3.0 14.0 0.00 0.00 0.00 92 1008.0
20190121034450 2 337 5.0 14.0 0.00 0.00 0.00 96 1007.0
20190121033951 2 90 4.0 8.0 0.00 0.00 0.00 88 1008.0
20190121033450 2 326 2.0 6.0 0.00 0.00 0.00 92 1008.0
20190121032951 2 337 3.0 6.0 0.00 0.00 0.00 94 1008.0
20190121032450 2 7 3.0 9.0 0.00 0.00 0.00 94 1008.0
20190121031951 2 309 4.0 9.0 0.00 0.00 0.00 94 1008.0
20190121031450 2 0 4.0 10.0 0.00 0.00 0.00 88 1007.0
20190121030951 2 5.0 10.0 0.00 0.00 0.00 90 1008.0
20190121030450 2 322 4.0 9.0 0.00 0.00 0.00 91 1007.1
20190121025951 3 22 5.0 14.0 0.00 0.00 0.00 89 1007.0
20190121025450 3 337 5.0 14.0 0.00 0.00 0.00 94 1007.0
20190121024951 3 22 5.0 99.0 0.00 0.00 0.00 92 1007.0
20190121023951 3 307 5.0 11.0 0.00 0.00 0.00 92 1007.0
20190121023450 3 315 5.0 13.0 0.00 0.00 0.00 86 1006.0
20190121022951 3 326 8.0 64.0 0.00 0.00 0.00 86 1007.0
20190121022450 4 337 10.0 64.0 0.00 0.00 0.00 86 1006.0
20190121021951 4 352 7.0 15.0 0.00 0.00 0.00 93 1006.0
20190121021450 4 292 6.0 15.0 0.00 0.00 0.00 88 1007.0
20190121020951 4 315 6.0 16.0 0.00 0.00 0.00 86 1007.0
20190121020450 4 322 6.0 16.0 0.00 0.00 0.00 90 1007.0
20190121015951 4 7.0 11.0 0.00 0.00 0.00 89 1007.0
20190121015450 4 315 5.0 10.0 0.00 0.00 0.00 91 1220.0
20190121014951 5 0 5.0 12.0 0.00 0.00 0.00 95 1007.0
20190121014450 5 337 7.0 17.0 0.00 0.00 0.00 88 1007.0
20190121013951 5 22 6.0 17.0 0.00 0.00 0.00 88 1007.0
20190121013450 5 22 6.0 15.0 0.00 0.00 0.00 94 1007.0
20190121012951 5 337 5.0 10.0 0.00 0.00 0.00 90 1007.0
20190121012450 5 315 5.0 12.0 0.00 0.00 0.00 93 1007.0
20190121011951 5 348 5.0 12.0 0.00 0.00 0.00 99 1007.0
20190121011450 6 337 6.0 17.0 0.00 0.00 0.00 92 1006.0
20190121010951 6 6.0 17.0 0.00 0.00 0.00 84 1007.0
20190121010450 6 348 7.0 15.0 0.00 0.00 0.00 95 1007.0
20190121005951 6 225 6.0 15.0 0.00 0.00 0.00 93 1007.0
20190121005450 6 45 5.0 11.0 0.00 0.00 0.00 91 1007.0
20190121004951 6 322 6.0 11.0 0.00 0.00 0.00 87 1268.0
20190121004450 6 337 5.0 15.0 0.00 0.00 0.00 82 1006.0
20190121003951 6 315 6.0 16.0 0.00 0.00 0.00 89 1007.0
20190121003450 6 326 7.0 16.0 0.00 0.00 0.00 93 1007.0
20190121002951 7 318 6.0 13.0 0.00 0.00 0.00 92 1007.0
20190121002450 7 292 6.0 15.0 0.00 0.00 0.00 90 1007.0
20190121001951 7 328 6.0 15.0 0.00 0.00 0.00 90 1007.0
20190121001450 7 315 7.0 14.0 0.00 0.00 0.00 91 1007.0
20190121000951 7 337 6.0 14.0 0.00 0.00 0.00 87 1007.0
20190121000450 7 352 5.0 12.0 0.00 0.00 0.00 90 1006.0
20190120235950 7 309 6.0 12.0 0.00 0.00 0.00 93 1254.0
20190120235450 7 326 5.0 10.0 0.00 0.00 0.00 95 1006.0
20190120234951 7 337 5.0 10.0 0.00 0.00 0.00 88 1006.0
20190120234450 7 33 5.0 13.0 0.00 0.00 0.00 92 1006.0
20190120233950 7 0 5.0 13.0 0.00 0.00 0.00 91 1006.0
20190120233450 8 330 5.0 10.0 0.00 0.00 0.00 92 1006.0
20190120232951 8 5.0 12.0 0.00 0.00 0.00 90 1006.0
20190120232450 8 322 5.0 14.0 0.00 0.00 0.00 89 1006.0
20190120231951 8 67 5.0 14.0 0.00 0.00 0.00 93 1006.0
20190120231450 8 22 5.0 13.0 0.00 0.00 0.00 90 1006.0
20190120230951 9 0 6.0 16.0 0.00 0.00 0.00 92 1006.0
20190120230450 9 337 5.0 16.0 0.00 0.00 0.00 94 1006.0
20190120225951 9 337 6.0 15.0 0.00 0.00 0.00 89 1006.0
20190120225450 9 0 6.0 14.0 0.00 0.00 0.00 91 1006.0
20190120224950 9 22 5.0 9.0 0.00 0.00 0.00 90 1006.0
20190120224450 9 315 4.0 15.0 0.00 0.00 0.00 89 1005.0
20190120223950 9 22 6.0 15.0 0.00 0.00 0.00 94 1005.0
20190120223450 9 303 8.0 15.0 0.00 0.00 0.00 88 1005.0
20190120222951 9 337 7.0 17.0 0.00 0.00 0.00 90 1005.0
20190120222450 9 22 7.0 17.0 0.00 0.00 0.00 96 1005.0
20190120221951 10 11 5.0 12.0 0.00 0.00 0.00 89 1005.0
20190120221450 10 6.0 16.0 0.00 0.00 0.00 92 1005.0
20190120220951 10 337 9.0 16.0 0.00 0.00 0.00 89 1005.0
20190120220450 11 326 7.0 14.0 0.00 0.00 0.00 91 1004.0
20190120215951 11 270 7.0 18.0 0.00 0.00 0.00 89 1004.0
20190120215450 11 22 7.0 18.0 0.00 0.00 0.00 89 1004.0
20190120214950 12 45 6.0 14.0 0.00 0.00 0.00 92 1004.0
20190120214450 12 285 4.0 9.0 0.00 0.00 0.00 91 1004.0
20190120213951 13 45 5.0 14.0 0.00 0.00 0.00 92 1004.0
20190120213450 13 11 5.0 14.0 0.00 0.00 0.00 94 1004.0
20190120212951 14 354 6.0 17.0 0.00 0.00 0.00 89 1003.1
20190120212450 14 300 6.0 17.0 0.00 0.00 0.00 92 1003.0
20190120211951 15 0 4.0 11.0 0.00 0.00 0.00 87 1003.0
20190120211450 16 337 5.0 10.0 0.00 0.00 0.00 85 1003.0
20190120210950 20 3.0 11.0 0.00 0.00 0.00 84 1003.0
20190120210450 19 292 5.0 14.0 0.00 0.00 0.00 83 1003.0
20190120205950 18 9 5.0 14.0 0.00 0.00 0.00 89 1002.0
20190120205450 18 22 5.0 10.0 0.00 0.00 0.00 92 1003.0
20190120204950 18 22 5.0 16.0 0.00 0.00 0.00 91 1002.0
20190120204450 18 180 7.0 16.0 0.00 0.00 0.00 93 1003.0
20190120203950 19 337 5.0 11.0 0.00 0.00 0.00 95 1003.0
20190120203450 20 292 7.0 12.0 0.00 0.00 0.00 97 1002.0
20190120202951 21 326 5.0 12.0 0.00 0.00 0.00 97 1003.0
20190120202450 22 330 4.0 12.0 0.00 0.00 0.00 96 1003.0
20190120201950 22 315 5.0 12.0 0.00 0.00 0.00 95 1002.0
20190120201450 22 337 3.0 8.0 0.00 0.00 0.00 97 1002.0
20190120200950 23 333 4.0 9.0 0.00 0.00 0.00 98 1002.0
20190120200450 22 354 4.0 13.0 0.00 0.00 0.00 97 1002.0
20190120195950 23 5.0 13.0 0.00 0.00 0.00 98 1001.0
20190120195450 24 285 5.0 10.0 0.00 0.00 0.00 96 1001.0
20190120194450 26 292 2.0 5.0 0.00 0.00 0.00 96 1002.0
20190120193950 26 281 2.0 7.0 0.00 0.00 0.00 96 1002.0
20190120193449 26 0 3.0 10.0 0.00 0.00 0.00 96 1001.0
20190120192950 26 337 4.0 10.0 0.00 0.00 0.00 95 1001.0
20190120192450 26 352 3.0 7.0 0.00 0.00 0.00 96 1002.0
20190120191950 27 307 3.0 5.0 0.00 0.00 0.00 95 1002.0
20190120191450 27 315 3.0 5.0 0.00 0.00 0.00 96 1001.0
20190120190950 27 337 2.0 5.0 0.00 0.00 0.00 93 1006.0
20190120190450 27 337 3.0 7.0 0.00 0.00 0.00 93 1001.0
20190120185449 28 3 3.0 6.0 0.00 0.00 0.00 95 1000.0
20190120184950 27 337 2.0 10.0 0.00 0.00 0.00 95 1001.0
20190120184449 27 337 3.0 10.0 0.00 0.00 0.00 96 1001.0